Wind_Speed
10 13 16 18 14 11 8 7 6 8 8 9 10 11 11 11 13 12 16 18 16 15 15 15 16 17 18 21 23 24 23 23 23 22 20 21 23 27 27 27 22 19 15
7 8 12 12 13 10 10 14 11 9 9 9 11 12 12 12 14 13 12 14 14 14 13 13 14 15 17 17 17 19 19 20 17 16 16 18 17 20 31 25 28 19 15
8 11 12 11 10 11 11 15 15 16 16 15 12 12 13 11 14 15 15 13 14 15 16 16 15 15 14 15 15 17 19 17 15 14 12 16 17 22 24 24 11 15 11
12 15 14 14 15 12 13 12 18 20 20 19 19 17 14 13 12 14 15 15 16 16 17 17 16 14 15 17 15 15 15 17 16 15 15 17 15 11 16 20 13 13 14
14 16 17 19 21 21 21 22 23 25 29 28 28 21 18 16 15 13 14 16 18 17 16 18 19 18 17 18 19 18 17 19 18 16 16 16 15 12 10 10 9 14 17
15 18 19 20 25 27 28 27 28 28 30 33 35 29 23 20 20 15 15 15 15 18 20 19 18 19 17 17 17 17 17 18 18 20 20 19 17 18 18 17 19 21 24
18 18 21 25 27 30 32 32 31 28 28 36 33 32 26 21 21 19 17 15 13 14 17 17 18 19 19 18 16 19 20 18 20 20 19 19 20 20 21 23 23 25 25
23 23 26 28 31 32 32 30 31 32 27 35 26 28 25 28 25 24 22 20 17 18 17 15 16 15 17 17 18 20 20 19 19 19 19 19 19 20 21 21 21 22 23
26 28 30 30 32 33 31 30 33 35 31 27 24 24 27 32 28 31 28 25 23 19 18 14 15 16 16 18 19 18 21 21 21 19 20 19 18 18 18 19 19 20 21
26 29 32 33 35 36 35 33 35 37 38 35 33 32 38 34 34 29 32 31 30 27 21 20 19 20 21 21 18 19 21 20 21 20 20 20 19 17 18 18 18 19 20
29 32 35 36 37 38 38 38 38 39 40 41 39 41 39 39 38 30 30 32 34 33 27 26 25 24 24 23 21 22 23 22 21 19 20 20 20 20 20 20 20 20 22
34 36 38 39 40 40 37 41 39 42 43 43 45 54 55 50 40 36 32 33 31 29 29 30 29 28 28 28 26 27 25 25 24 25 25 24 24 23 23 23 23 22 23
38 39 42 44 45 43 39 38 36 40 40 44 49 52 38 44 45 40 32 31 33 30 31 34 33 31 29 29 29 30 28 27 27 27 27 27 26 25 26 26 26 27 28
43 45 46 47 39 34 30 34 34 34 34 36 36 17 24 33 38 33 34 33 33 37 37 31 31 35 31 33 34 33 34 32 31 29 31 30 30 29 30 29 30 31 31
46 46 41 34 31 29 30 31 31 32 28 25 28 19 22 35 42 37 37 36 38 39 35 30 27 23 23 25 31 34 38 38 38 36 32 33 32 33 34 34 34 36 35
38 35 31 31 29 27 29 32 31 30 28 26 23 26 20 34 39 40 35 39 30 35 29 25 23 22 23 24 23 29 34 38 45 42 36 35 36 37 37 37 36 37 38
30 28 28 30 30 27 27 27 27 28 29 27 24 28 25 18 33 30 24 46 30 37 37 31 26 28 29 28 30 32 34 34 36 42 44 42 39 40 38 38 38 39 40
28 26 25 25 26 26 27 26 24 24 26 25 27 30 30 28 29 23 23 26 26 21 22 24 25 31 34 34 34 33 34 33 40 44 48 46 49 42 36 38 38 38 40
31 30 25 23 23 24 26 27 26 23 23 23 23 26 32 30 28 29 26 26 27 30 30 27 30 33 32 32 34 32 33 36 41 48 48 34 31 31 34 37 40 43 46
27 26 25 24 23 24 25 25 24 24 21 20 21 21 26 25 20 21 26 28 39 27 27 19 23 22 21 21 28 31 28 32 38 38 33 34 35 36 39 42 45 48 51
26 26 25 24 23 22 25 23 22 21 23 23 22 18 17 17 21 24 28 25 22 19 22 24 23 24 24 24 24 26 29 31 32 35 38 38 42 45 48 50 50 50 51
22 24 25 22 21 22 24 24 22 21 20 22 20 17 18 19 22 23 25 27 23 23 24 27 28 26 25 23 24 27 31 35 38 41 44 47 48 48 48 47 47 49 49
22 24 25 25 25 23 23 23 24 23 22 20 21 20 21 19 18 19 22 26 23 20 24 28 29 31 30 30 29 31 36 40 44 45 44 44 43 43 43 45 45 45 45
25 25 27 27 28 28 28 28 27 27 26 22 17 20 20 18 16 17 26 26 28 30 32 34 36 32 30 31 34 36 37 39 39 40 39 38 39 39 38 40 40 40 42
20 21 23 25 28 30 31 31 30 25 25 23 23 29 23 19 24 27 37 33 30 30 31 33 33 34 35 37 39 38 37 37 36 36 36 36 36 36 37 40 43 45 47
19 20 21 23 25 25 27 27 26 24 24 24 23 25 24 26 31 25 29 31 31 29 29 35 38 36 32 35 35 34 33 33 34 34 34 36 38 41 43 45 46 44 42
Wind_Direction
325 357 348 340 343 25 355 3 346 329 319 315 316 309 303 292 258 260 250 243 238 237 240 249 256 260 264 267 269 274 276 276 281 280 278 276 276 268 263 265 246 243 252
313 338 334 347 325 312 323 331 332 329 313 317 318 311 305 293 279 268 262 249 238 234 231 242 251 263 269 271 278 279 278 273 274 273 270 268 270 251 261 264 246 211 234
279 294 312 328 333 351 320 313 322 311 309 302 299 302 302 291 276 271 254 237 229 231 235 240 247 253 257 260 263 263 267 274 275 268 271 281 287 284 276 253 206 234 243
272 292 301 316 317 322 326 334 315 311 304 307 305 293 299 290 273 265 258 244 237 237 235 232 231 233 254 258 259 260 260 260 265 265 264 277 295 312 275 213 194 227 246
260 271 285 298 306 313 317 320 319 319 321 309 295 289 287 293 277 268 264 252 246 243 239 233 231 238 245 252 256 258 253 255 261 267 264 270 267 271 276 262 245 259 264
264 276 289 301 305 310 312 311 314 313 311 312 316 286 270 275 281 265 258 256 254 247 245 245 243 242 242 247 256 259 253 253 256 261 264 263 259 256 254 253 258 263 265
270 281 287 290 296 302 306 310 309 313 309 318 293 308 279 271 277 271 258 247 237 236 239 244 247 249 251 252 251 253 252 250 253 257 261 265 266 266 265 267 267 271 272
270 272 277 284 290 298 305 306 308 304 313 293 299 286 293 285 279 271 262 247 235 236 240 242 250 259 262 263 253 251 254 250 249 252 257 260 263 265 266 267 268 270 271
259 272 280 285 291 299 303 302 303 302 302 298 292 288 297 287 277 277 267 265 257 245 247 244 253 260 264 263 261 258 253 251 249 249 250 253 256 263 267 266 267 271 273
271 280 288 292 296 299 299 299 295 300 297 292 286 273 270 279 266 271 267 259 260 257 249 248 250 261 264 264 262 261 257 252 251 251 252 252 252 253 256 260 267 274 274
274 281 284 291 294 295 298 296 293 291 292 291 283 279 278 270 255 251 257 257 256 256 255 251 252 255 262 262 264 264 260 255 251 246 249 251 254 255 253 256 259 262 268
275 278 284 288 294 300 299 297 293 291 293 290 296 289 275 254 247 245 248 260 258 253 253 254 253 253 255 257 257 256 255 253 254 254 254 254 254 257 260 262 264 264 263
279 286 288 294 299 297 293 286 287 290 296 304 314 295 254 222 238 243 246 252 257 249 250 255 255 251 251 253 253 252 252 253 255 257 258 260 260 262 267 268 268 269 271
282 285 291 296 291 288 285 286 288 291 298 311 322 299 201 207 225 238 247 246 252 253 256 259 263 257 254 245 250 251 253 252 253 256 262 260 261 261 262 264 267 268 270
286 294 294 291 284 281 282 281 283 288 292 300 302 312 231 223 236 243 245 248 251 260 267 265 249 251 254 241 243 246 249 257 259 260 261 261 261 262 263 268 272 274 271
295 293 292 285 280 281 281 282 283 281 282 283 280 275 288 255 238 241 243 250 247 254 264 254 245 255 251 257 250 253 254 258 261 258 251 251 257 257 260 264 266 267 269
291 288 285 283 284 282 278 276 277 275 276 274 270 269 266 271 263 264 252 249 267 255 256 254 248 253 268 272 271 271 261 262 252 246 253 256 260 259 261 266 267 268 269
287 289 291 291 286 279 275 276 273 271 272 272 265 264 261 257 258 260 271 276 277 271 260 263 266 267 273 275 271 270 262 263 253 254 255 260 271 274 270 267 270 270 268
287 290 287 282 283 280 280 281 282 279 277 276 270 266 266 261 257 262 264 260 254 252 250 247 255 266 266 266 258 262 263 259 252 250 257 269 268 270 269 270 272 271 271
287 284 282 274 272 276 279 281 281 282 280 281 278 270 271 268 250 257 258 257 252 244 252 267 262 251 255 243 243 251 252 259 255 261 267 272 271 270 269 269 270 270 272
283 277 269 263 267 273 274 275 278 279 279 281 277 274 257 247 259 257 251 274 262 232 253 262 259 259 253 253 247 250 252 253 258 262 267 269 272 268 267 268 271 273 275
264 262 266 266 263 259 264 269 271 270 268 269 271 268 252 254 257 259 260 271 272 263 261 264 260 251 248 251 256 261 262 260 262 266 270 272 272 271 273 276 280 281 282
264 257 254 257 256 255 254 259 263 263 260 255 251 260 259 254 248 258 260 261 257 233 232 236 244 242 248 255 257 265 266 267 268 269 273 276 276 277 279 280 281 281 281
275 264 256 252 250 251 251 253 255 261 262 263 246 268 267 271 269 242 235 239 228 228 229 236 241 251 266 273 273 272 275 277 277 278 276 278 281 283 284 284 284 283 284
277 272 266 260 257 255 255 257 261 257 258 256 258 248 260 259 251 247 235 236 233 248 252 261 272 271 271 276 280 279 277 278 279 281 282 283 282 282 283 284 286 287 289
279 273 269 266 264 262 259 259 261 259 265 270 272 272 268 266 257 255 247 247 255 261 268 271 279 281 281 278 276 277 277 277 278 280 281 282 284 286 287 288 289 289 287
Height
5848 5844 5843 5840 5837 5834 5836 5834 5833 5832 5832 5831 5829 5829 5829 5828 5826 5825 5826 5826 5825 5826 5827 5828 5831 5832 5832 5833 5834 5833 5833 5833 5834 5835 5835 5836 5837 5836 5837 5837 5838 5841 5841
5845 5841 5839 5838 5836 5835 5833 5831 5830 5828 5828 5826 5826 5826 5826 5826 5825 5822 5821 5822 5822 5822 5822 5824 5825 5826 5827 5828 5828 5829 5828 5828 5829 5829 5830 5830 5829 5826 5829 5829 5830 5834 5837
5840 5840 5838 5837 5837 5834 5832 5830 5829 5828 5826 5825 5823 5823 5823 5821 5821 5820 5819 5817 5816 5817 5818 5819 5820 5821 5822 5823 5824 5825 5825 5826 5825 5825 5826 5826 5826 5825 5824 5823 5826 5831 5833
5838 5838 5836 5834 5835 5832 5831 5828 5827 5826 5825 5824 5822 5820 5818 5817 5816 5816 5816 5815 5814 5813 5814 5814 5814 5815 5817 5819 5819 5820 5821 5821 5821 5821 5822 5823 5822 5821 5821 5820 5823 5828 5828
5833 5834 5833 5831 5831 5829 5830 5829 5827 5826 5824 5822 5820 5818 5817 5814 5813 5812 5811 5811 5812 5812 5812 5811 5809 5809 5811 5813 5815 5815 5816 5816 5817 5818 5818 5818 5819 5819 5819 5820 5821 5824 5824
5827 5830 5830 5828 5828 5827 5826 5825 5824 5822 5821 5819 5819 5817 5813 5811 5810 5807 5806 5806 5806 5807 5808 5808 5807 5806 5805 5807 5809 5811 5811 5812 5813 5814 5814 5814 5814 5815 5816 5816 5817 5818 5817
5825 5826 5826 5824 5823 5822 5820 5820 5817 5816 5815 5814 5813 5814 5811 5808 5809 5807 5803 5800 5800 5800 5801 5802 5803 5802 5801 5801 5802 5805 5806 5806 5807 5808 5808 5809 5809 5809 5809 5810 5810 5810 5810
5819 5819 5820 5818 5817 5816 5814 5812 5809 5807 5807 5805 5805 5807 5807 5807 5805 5805 5803 5798 5794 5794 5795 5796 5798 5797 5797 5797 5796 5799 5800 5800 5801 5802 5802 5802 5802 5802 5802 5802 5803 5803 5803
5812 5812 5813 5810 5808 5808 5807 5803 5800 5797 5798 5798 5797 5798 5799 5799 5799 5799 5798 5797 5794 5789 5788 5790 5792 5793 5793 5793 5793 5792 5794 5795 5796 5796 5796 5795 5795 5796 5795 5796 5795 5796 5795
5803 5804 5803 5803 5800 5799 5797 5794 5792 5790 5788 5787 5788 5788 5787 5788 5790 5789 5791 5790 5790 5789 5786 5783 5785 5787 5787 5788 5786 5787 5788 5789 5790 5790 5790 5790 5789 5789 5789 5789 5788 5789 5789
5794 5794 5793 5792 5791 5790 5787 5783 5780 5777 5775 5774 5773 5773 5774 5777 5776 5777 5780 5782 5781 5781 5780 5779 5779 5780 5782 5782 5782 5783 5783 5783 5783 5783 5784 5784 5783 5783 5782 5781 5780 5780 5781
5785 5785 5783 5782 5780 5777 5774 5771 5768 5764 5760 5757 5753 5751 5751 5758 5762 5766 5767 5772 5771 5772 5773 5772 5772 5772 5773 5775 5776 5776 5777 5776 5776 5776 5776 5776 5776 5776 5776 5775 5774 5773 5772
5773 5773 5772 5769 5767 5764 5762 5759 5758 5754 5748 5743 5736 5713 5714 5734 5750 5754 5757 5760 5762 5762 5762 5762 5762 5763 5764 5765 5766 5767 5768 5769 5770 5769 5769 5769 5769 5769 5769 5768 5767 5767 5765
5763 5762 5759 5757 5753 5750 5750 5748 5747 5745 5740 5733 5726 5712 5715 5727 5739 5744 5747 5748 5750 5752 5751 5749 5750 5752 5754 5756 5757 5757 5757 5759 5760 5760 5761 5761 5761 5760 5759 5758 5756 5757 5757
5752 5750 5746 5744 5743 5741 5738 5738 5736 5735 5733 5730 5728 5725 5727 5730 5733 5735 5736 5738 5741 5740 5741 5742 5742 5743 5744 5744 5748 5749 5750 5750 5750 5750 5751 5751 5751 5750 5749 5749 5748 5746 5746
5737 5737 5736 5736 5734 5730 5728 5728 5725 5724 5725 5725 5724 5723 5723 5725 5728 5727 5727 5731 5729 5731 5733 5733 5734 5734 5735 5737 5738 5740 5741 5741 5740 5739 5739 5739 5739 5739 5738 5736 5736 5734 5734
5729 5729 5729 5728 5726 5723 5720 5719 5719 5716 5715 5717 5717 5715 5717 5715 5719 5717 5716 5721 5720 5720 5723 5724 5724 5717 5726 5728 5728 5728 5727 5728 5727 5727 5727 5726 5727 5727 5727 5727 5726 5724 5723
5720 5721 5720 5718 5716 5714 5713 5709 5709 5708 5707 5708 5709 5707 5708 5710 5710 5709 5711 5710 5710 5711 5712 5715 5716 5716 5716 5716 5715 5715 5715 5716 5717 5717 5716 5716 5716 5716 5716 5715 5714 5713 5713
5711 5710 5709 5707 5705 5705 5703 5701 5698 5696 5698 5698 5699 5698 5696 5699 5699 5699 5699 5702 5702 5703 5704 5703 5704 5705 5704 5704 5704 5704 5705 5705 5706 5706 5708 5709 5709 5707 5706 5705 5703 5701 5699
5700 5700 5699 5698 5696 5695 5695 5694 5691 5688 5688 5688 5688 5686 5685 5685 5687 5690 5692 5692 5691 5691 5691 5689 5694 5693 5693 5692 5692 5693 5694 5694 5696 5697 5698 5697 5695 5694 5693 5691 5688 5686 5685
5689 5690 5691 5690 5688 5686 5685 5687 5685 5683 5681 5680 5680 5680 5679 5680 5680 5681 5684 5681 5680 5681 5685 5684 5684 5684 5684 5684 5683 5683 5684 5685 5685 5685 5685 5683 5682 5680 5678 5676 5675 5673 5671
5681 5681 5680 5680 5680 5679 5678 5677 5677 5676 5675 5674 5673 5672 5672 5672 5673 5673 5672 5672 5674 5672 5673 5674 5674 5674 5674 5674 5674 5675 5676 5677 5676 5675 5673 5672 5670 5668 5666 5664 5664 5663 5660
5671 5670 5670 5670 5670 5669 5668 5668 5667 5666 5666 5667 5667 5667 5666 5666 5666 5666 5666 5665 5665 5664 5665 5665 5664 5665 5664 5665 5665 5665 5665 5665 5664 5662 5661 5659 5657 5655 5653 5651 5650 5649 5647
5662 5662 5661 5660 5660 5659 5659 5659 5659 5658 5657 5658 5659 5658 5658 5657 5658 5660 5656 5656 5657 5656 5655 5655 5656 5655 5654 5654 5654 5653 5653 5652 5652 5651 5649 5647 5645 5643 5640 5639 5637 5635 5634
5655 5654 5654 5653 5652 5652 5651 5650 5650 5650 5650 5651 5651 5650 5650 5651 5652 5652 5652 5650 5649 5649 5649 5648 5647 5647 5647 5646 5646 5644 5643 5642 5642 5641 5639 5636 5635 5633 5630 5627 5625 5623 5621
5648 5648 5647 5645 5645 5644 5644 5643 5643 5643 5643 5644 5644 5643 5644 5642 5643 5643 5641 5642 5641 5640 5640 5640 5639 5637 5637 5637 5637 5635 5633 5631 5631 5629 5628 5626 5623 5621 5619 5615 5612 5609 5608